Regional Weather Roundup
Issued by NWS

Home | Current Version | Previous Version | Text Only | Print | Product List | Glossary On
Versions: 1 2 3 4 5 6 7 8 9 10 11 12 13 14 15 16 17 18 19 20 21 22 23 24 25 26 27 28 29 30 31 32 33 34 35 36 37 38 39 40 41 42 43 44 45 46 47 48 49 50
000
ASUS43 KLSX 291610
RWRMO

WEATHER SUMMARY FOR MISSOURI
NATIONAL WEATHER SERVICE SPRINGFIELD MO
1100 AM CDT FRI JUL 29 2016

NOTE: "FAIR" INDICATES FEW OR NO CLOUDS BELOW 12,000 FEET WITH NO
       SIGNIFICANT WEATHER AND/OR OBSTRUCTIONS TO VISIBILITY.
       CURRENT SKY AND/OR WEATHER CONDITIONS ARE NOT AVAILABLE FOR
       CHILLICOTHE AND FARMINGTON.

MOZ001>031-035>038-043-044-053-054-291700-
...NORTHERN AND WESTERN MISSOURI...

CITY           SKY/WX    TMP DP  RH WIND       PRES   REMARKS
KANSAS CTY INT PTSUNNY   79  64  60 CALM      30.04R
KANSAS C DTWN  MOSUNNY   82  63  52 N5        30.01S
LEE`S SUMMIT   CLOUDY    78  65  63 NE8       30.03R
ST JOSEPH      MOSUNNY   77  65  66 N9        30.03R
CHILLICOTHE      N/A     78  66  66 VRB3      30.03R
KIRKSVILLE     CLOUDY    77  64  64 VRB5      30.01S

$$
MOZ066>068-077>081-088>096-101>105-291700-
...SOUTHWEST MISSOURI...

CITY           SKY/WX    TMP DP  RH WIND       PRES   REMARKS
SPRINGFIELD    PTSUNNY   81  71  71 W7        29.99R
JOPLIN         CLOUDY    77  71  82 N8        30.02R
BRANSON        PTSUNNY   82  75  78 SW6       30.02S

$$
MOZ032>034-039>042-045>050-055>058-069>072-291700-
...CENTRAL MISSOURI...

CITY           SKY/WX    TMP DP  RH WIND       PRES   REMARKS
COLUMBIA       MOSUNNY   80  69  69 NW5       30.00S
JEFFERSON CITY PTSUNNY   77  68  73 CALM      29.99S
ROLLA          PTSUNNY   79  70  74 CALM      29.99S
SEDALIA        CLOUDY    80  67  64 CALM      30.02R
WHITEMAN AFB   PTSUNNY   78  69  76 N7        30.00R
OSAGE BEACH    PTSUNNY   78  72  81 SE7       29.99F

$$
MOZ051-052-059>065-291700-
...EAST CENTRAL MISSOURI...

CITY           SKY/WX    TMP DP  RH WIND       PRES   REMARKS
ST LOUIS INTL  CLOUDY    83  66  56 W3        29.96F
SPIRIT OF STL  CLOUDY    81  70  69 NW5       29.96S
ST CHARLES     CLOUDY    76  71  85 W5        29.96S

$$
MOZ072>076-082>087-097>100-106>115-291700-
...SOUTH CENTRAL AND SOUTHEAST MISSOURI...

CITY           SKY/WX    TMP DP  RH WIND       PRES   REMARKS
CAPE GIRARDEAU CLOUDY    76  72  87 W5        29.96R
FARMINGTON     CLOUDY    80  72  76 CALM      29.99S
POPLAR BLUFF   SUNNY     82  73  74 W3        29.96R
WEST PLAINS    CLOUDY    83  69  62 VRB3      30.02S

$$




USA.gov is the U.S. government's official web portal to all federal, state and local government web resources and services.